Startseite
Über Mich
AHP4
Galerie
Sehschlangen
Tourenbuch
Bookmarks
Elektronik
Bewertung
Geschichten
[Tagesmessung] [Jahreswerte] [Information]

Messwerte vom 25.11.2021

Die letzten Messwerte von 23:58:49 Uhr:
KategorieMesswert
Temperatur [°C]3
Luftdruck [mBar]990
Sonneneinstrahlung8
Wind [km/h]6 aus Südwest
Niederschlag [l/m²]0
rel.Luftfeucht.96.6%
CO2 [ppm]539

Diagramme
Messwerte vom 25.11.2021
Tagesaggregation
KategorieMinimumMaximumSchnittSumme
Temperatur [°C]394.6125
Luftdruck [mBar]989999993.1792
Sonneneinstrahlung22257.2354
Wind [km/h]14
rF [%]73.896.692.17
Niederschlag [l/m²]0
CO2 [ppm]393663501.7
Einordnung alsKalter Tag

Messungen an benachbarten Tagen: Zur Jahresaggregation 2021
Tabelle aller Messwerte
UhrzeitTemperatur [°C]Luftdruck [mBar]SonneWind [km/h]RichtungRegen [l/m²]rF [%]CO2 [ppm]
00:01:47 5 998 0 1 S 0 93.8 663
00:04:45 5 998 0 0 SO 0 93.6 656
00:07:48 5 998 0 0 S 0 93.8 656
00:10:47 5 999 0 0 SO 0 93.9 646
00:13:46 5 998 0 0 SO 0 93.2 641
00:16:46 5 998 0 1 SO 0 93.2 645
00:19:45 5 998 0 0 O 0 93.1 646
00:22:46 5 998 0 0 O 0 93.2 648
00:25:45 5 999 0 0 N 0 93.2 648
00:28:47 5 999 0 0 SO 0 93.8 650
00:31:48 5 998 0 0 SO 0 94 642
00:34:46 5 998 0 0 SO 0 94.1 635
00:37:48 5 998 0 1 SO 0 94.1 629
00:40:47 5 998 0 0 SO 0 93.7 635
00:43:47 5 998 0 3 0 93.3 629
00:46:46 5 998 0 0 SW 0 93.3 629
00:49:45 5 998 0 1 S 0 93.4 638
00:52:44 5 998 0 0 S 0 93 631
00:55:48 5 998 0 1 SO 0 93.5 631
00:58:48 5 998 0 1 SO 0 93.5 629
01:01:45 5 998 0 3 SO 0 93.7 634
01:04:44 5 998 0 0 S 0 93.6 635
01:07:46 5 998 0 0 SO 0 94 629
01:10:46 5 998 0 0 SO 0 93.9 629
01:13:45 5 998 0 3 O 0 94 623
01:16:47 5 998 0 3 SO 0 93.7 624
01:19:50 5 998 0 1 SO 0 92.8 622
01:22:45 5 998 0 3 SO 0 92.6 615
01:25:47 5 998 0 1 SO 0 92.5 617
01:28:49 5 998 0 0 SO 0 92.2 618
01:31:48 5 998 0 2 SO 0 91.9 630
01:34:47 5 997 0 0 SO 0 91.5 630
01:37:46 5 998 0 4 S 0 91.7 626
01:40:46 5 998 0 0 SO 0 91.7 623
01:43:47 5 998 0 0 SO 0 91.8 620
01:46:48 5 998 0 0 SO 0 92 618
01:49:47 5 998 0 0 SO 0 92.2 612
01:52:47 5 998 0 0 SO 0 92.5 618
01:55:49 5 998 0 0 SO 0 92.8 616
01:58:48 5 998 0 0 SO 0 93 615
02:01:45 5 998 0 1 SO 0 93.1 614
02:04:46 5 997 0 2 SO 0 93.1 605
02:07:46 5 998 0 1 SO 0 93.1 605
02:10:48 5 998 0 0 NW 0 93 607
02:13:46 5 997 0 0 NW 0 93 608
02:16:51 4 997 0 0 NW 0 93.3 603
02:19:46 4 997 0 0 NW 0 93.4 600
02:22:46 4 997 0 0 NW 0 93.6 600
02:25:47 4 998 0 0 NW 0 93.8 608
02:28:46 4 997 0 0 NW 0 93.9 605
02:31:47 4 997 0 0 NW 0 94.2 594
02:34:47 4 998 0 0 SO 0 94.1 590
02:37:46 4 997 0 0 SO 0 94 595
02:40:45 4 997 0 0 SO 0 93.5 605
02:43:45 4 997 0 0 SO 0 93.3 611
02:46:50 4 997 0 0 SO 0 93.2 609
02:49:48 4 997 0 0 SO 0 93.3 606
02:52:46 4 997 0 0 SO 0 93.4 600
02:55:46 4 996 0 0 SO 0 93.4 602
02:58:48 4 997 0 1 SO 0 93.2 590
03:01:48 4 997 0 0 SO 0 92.9 596
03:04:48 4 996 0 0 SO 0 92.7 591
03:07:45 4 996 0 0 O 0 92.9 597
03:10:44 4 997 0 0 S 0 93 591
03:13:46 4 997 0 0 SO 0 93.1 589
03:16:45 4 997 0 0 SO 0 93.3 582
03:19:48 4 996 0 0 SO 0 93.2 573
03:22:46 4 996 0 0 N 0 93.1 570
03:25:45 4 996 0 0 N 0 93.2 580
03:28:45 4 996 0 0 O 0 93.3 585
03:31:46 4 996 0 0 O 0 93.4 589
03:34:46 4 996 0 0 O 0 93.5 581
03:37:45 4 996 0 0 O 0 93.7 583
03:40:45 4 996 0 0 SO 0 94 577
03:43:46 4 995 0 0 SO 0 94.2 568
03:46:46 4 995 0 0 SO 0 94.6 573
03:49:49 4 995 0 0 SO 0 94.7 583
03:52:45 4 996 0 0 NO 0 94.7 582
03:55:47 4 995 0 0 NO 0 94.8 574
03:58:46 4 995 0 0 SO 0 95 574
04:01:45 4 995 0 0 SO 0 95.1 573
04:04:47 4 996 0 0 NO 0 95.2 571
04:07:47 4 996 0 0 NO 0 95.3 580
04:10:50 4 995 0 0 SO 0 95.4 579
04:13:46 4 995 0 2 SO 0 95.4 571
04:16:49 4 995 0 2 SO 0 95.5 560
04:19:47 4 995 0 0 SO 0 95.6 562
04:22:46 4 995 0 0 SO 0 95.7 568
04:25:45 4 995 0 0 SO 0 95.8 562
04:28:46 4 995 0 0 SO 0 95.9 559
04:31:49 4 995 0 0 SO 0 96.1 560
04:34:47 4 995 0 0 SO 0 96 559
04:37:47 4 995 0 0 SO 0 96 556
04:40:48 4 995 0 0 SO 0 96 553
04:43:46 4 995 0 0 N 0 96.1 559
04:46:45 4 995 0 0 N 0 96.2 562
04:49:47 4 995 0 0 N 0 96.3 559
04:52:45 4 995 0 0 N 0 96.4 562
04:55:44 4 995 0 0 SO 0 96.4 559
04:58:47 4 995 0 0 SO 0 96.5 562
05:01:48 4 995 0 0 SO 0 96.6 565
05:04:48 4 995 0 0 SW 0 96.6 568
05:07:47 4 995 0 0 SW 0 96.6 567
05:10:47 4 995 0 0 SW 0 96.6 565
05:13:47 4 995 0 0 SW 0 96.6 562
05:16:46 4 995 0 0 SW 0 96.6 565
05:19:48 4 995 0 0 SO 0 96.6 560
05:22:47 4 995 0 0 SO 0 96.6 553
05:25:46 4 995 0 0 SO 0 96.6 552
05:28:47 4 995 0 0 SO 0 96.6 559
05:31:46 4 995 0 0 SO 0 96.6 556
05:34:46 4 995 0 0 NO 0 96.6 552
05:37:46 4 995 0 0 NO 0 96.6 550
05:40:46 4 995 0 0 S 0 96.6 542
05:43:46 4 995 0 0 S 0 96.6 547
05:46:44 4 995 0 1 S 0 96.6 547
05:49:46 4 995 0 0 S 0 96.5 559
05:52:46 4 995 0 0 S 0 96.2 557
05:55:45 4 995 0 0 S 0 96 556
05:58:46 4 995 0 1 SO 0 95.7 553
06:01:45 4 995 0 1 SW 0 95.5 556
06:04:46 4 995 0 0 SW 0 95.3 557
06:07:47 4 995 0 2 SW 0 95.1 564
06:10:47 4 995 0 0 W 0 94.9 562
06:13:44 4 995 0 1 O 0 94.7 557
06:16:49 4 995 0 0 NW 0 94.5 556
06:19:47 4 995 0 0 NO 0 94.6 550
06:22:45 4 995 0 0 N 0 94.7 553
06:25:45 4 995 0 0 N 0 95 551
06:28:46 4 995 0 0 N 0 95.1 550
06:31:45 4 995 0 0 N 0 95.5 550
06:34:49 4 995 0 0 S 0 95.6 550
06:37:47 4 995 0 0 S 0 95.7 548
06:40:47 4 995 0 0 S 0 95.7 548
06:43:46 4 995 0 0 S 0 95.9 544
06:46:45 4 995 0 0 S 0 96 547
06:49:46 4 995 0 0 SO 0 96.2 547
06:52:45 4 995 0 1 S 0 96.4 544
06:55:47 4 995 0 1 SO 0 96.4 553
06:58:48 4 995 0 0 S 0 96.2 552
07:01:47 4 995 0 1 NW 0 96.1 547
07:04:47 4 995 0 1 NW 0 96 539
07:07:47 4 995 0 0 N 0 96 543
07:10:48 4 995 0 0 N 0 95.9 540
07:13:46 4 995 0 0 N 0 96 530
07:16:47 4 994 0 0 N 0 96 518
07:19:45 4 995 0 0 N 0 96.2 404
07:22:46 4 995 0 0 N 0 96.3 405
07:25:47 4 994 0 0 SO 0 96.4 401
07:28:46 4 995 0 0 SO 0 96.5 407
07:31:45 4 994 3 0 N 0 96.5 407
07:34:45 4 995 4 0 O 0 96.5 404
07:37:46 4 995 5 0 S 0 96.6 407
07:40:48 4 995 8 0 NO 0 96.6 404
07:43:46 4 995 10 0 SO 0 96.6 403
07:46:45 4 995 15 0 N 0 96.6 406
07:49:46 4 995 19 0 W 0 96.6 406
07:52:48 4 995 24 0 N 0 96.6 404
07:55:47 4 994 28 0 NW 0 96.6 406
07:58:45 4 995 33 1 SO 0 96.6 406
08:01:49 4 995 40 1 S 0 96.6 404
08:04:49 4 995 49 1 SO 0 96.6 405
08:07:46 4 995 57 0 SO 0 96.6 406
08:10:49 4 995 65 0 NW 0 96.6 403
08:13:49 4 995 69 0 NW 0 96.5 406
08:16:48 4 995 75 1 SW 0 96.5 406
08:19:47 4 994 81 2 W 0 96.5 407
08:22:47 4 994 85 2 W 0 96.5 406
08:25:46 4 995 88 3 W 0 96.4 407
08:28:45 4 994 91 1 W 0 96.3 404
08:31:46 4 994 93 0 W 0 96.3 407
08:34:47 4 995 96 0 SO 0 96.4 407
08:37:48 4 994 98 0 W 0 96.4 404
08:40:50 4 995 100 1 SO 0 96.3 404
08:43:46 4 994 101 1 S 0 96.3 401
08:46:49 4 995 102 0 SO 0 96.2 406
08:49:49 4 994 106 0 SO 0 96.2 407
08:52:48 4 995 106 0 S 0 96.1 404
08:55:50 4 994 111 1 SW 0 96.1 407
08:58:46 4 995 114 0 SW 0 96 407
09:01:50 4 994 115 1 SO 0 95.8 406
09:04:47 4 995 115 0 SO 0 95.7 406
09:07:47 4 994 119 0 S 0 95.8 415
09:10:48 4 995 125 2 SO 0 95.7 421
09:13:45 4 994 123 0 S 0 95.6 421
09:16:45 4 994 128 0 O 0 95.3 419
09:19:45 4 994 134 0 S 0 95.2 415
09:22:47 4 994 139 0 SO 0 95.3 425
09:25:49 4 994 143 0 SO 0 95.4 433
09:28:46 4 994 150 0 S 0 95.4 433
09:31:46 4 994 151 1 S 0 95.3 430
09:34:46 4 994 156 0 SO 0 95.3 430
09:37:49 4 993 156 0 S 0 95.2 433
09:40:48 4 994 156 2 S 0 95 439
09:43:48 4 994 156 0 SO 0 94.7 439
09:46:46 4 994 159 0 W 0 94.6 436
09:49:48 4 994 164 1 SW 0 94.4 442
09:52:49 4 994 164 0 SO 0 94.2 442
09:55:47 4 994 171 1 S 0 94.2 442
09:58:47 4 994 182 0 S 0 94.1 442
10:01:45 4 994 192 0 S 0 94 441
10:04:48 4 993 197 0 S 0 93.8 442
10:07:45 5 994 196 1 S 0 93.4 448
10:10:47 5 994 183 2 S 0 93.3 445
10:13:49 4 993 185 6 SO 0 92.3 445
10:16:47 4 993 188 1 S 0 91.7 439
10:19:47 4 994 191 0 S 0 91.7 451
10:22:47 4 994 192 2 S 0 91.9 451
10:25:46 4 993 193 1 SW 0 92.4 457
10:28:48 4 994 194 0 W 0 92.7 450
10:31:48 4 993 195 0 S 0 93.1 452
10:34:48 4 993 197 0 SO 0 93.1 448
10:37:46 4 994 198 1 S 0 92.9 456
10:40:47 4 993 198 0 O 0 92.5 463
10:43:46 4 994 200 0 S 0 92.1 460
10:46:45 5 994 200 0 W 0 91.5 465
10:49:47 5 993 200 1 SW 0 90.7 448
10:52:47 5 993 201 1 O 0 90.8 459
10:55:48 5 994 202 4 SW 0 90.4 459
10:58:50 5 993 125 2 NW 0 89.9 407
11:01:48 5 993 201 2 SW 0 89.1 404
11:04:49 5 994 201 2 SO 0 89.3 407
11:07:48 5 993 201 3 SW 0 89.4 405
11:10:50 5 994 184 3 SW 0 88.7 418
11:13:47 5 993 203 5 W 0 88.2 407
11:16:48 5 993 202 3 NW 0 87.8 404
11:19:50 5 993 205 5 W 0 87.6 408
11:22:46 5 994 203 3 SW 0 87.7 407
11:25:47 5 993 206 3 W 0 88.2 404
11:28:48 5 994 208 5 NW 0 87.9 407
11:31:47 5 994 208 4 W 0 87.8 404
11:34:45 6 993 210 3 S 0 87.9 406
11:37:47 6 992 215 4 W 0 87.8 406
11:40:48 6 993 212 8 SW 0 87.7 407
11:43:47 6 992 215 3 NO 0 87 403
11:46:46 6 993 211 6 SW 0 86.6 405
11:49:49 7 992 215 2 W 0 85.8 404
11:52:48 7 993 212 4 W 0 85.5 404
11:55:47 8 992 209 1 W 0 85 407
11:58:49 8 993 207 8 W 0 79.2 406
12:01:47 8 993 210 1 S 0 79.6 403
12:04:48 8 993 209 6 NW 0 78.5 410
12:07:47 9 992 211 3 S 0 77.9 413
12:10:50 9 992 214 3 W 0 78.1 416
12:13:47 9 992 217 7 W 0 76.5 416
12:16:48 9 993 219 4 W 0 74.6 424
12:19:48 9 992 222 3 W 0 74.4 433
12:22:48 9 993 222 1 SO 0 74.1 433
12:25:50 9 992 222 7 NW 0 74.3 437
12:28:48 9 992 219 10 W 0 74 438
12:31:47 9 992 218 2 O 0 73.8 433
12:34:46 8 992 218 2 NW 0 75.1 430
12:37:46 8 991 219 6 W 0 76.1 442
12:40:46 8 991 219 5 W 0 76.7 449
12:43:46 8 992 220 6 W 0 77.3 448
12:46:48 8 991 217 1 SW 0 78.8 445
12:49:48 8 992 215 3 SO 0 78.3 448
12:52:49 8 992 215 0 NW 0 77.6 457
12:55:47 8 991 213 3 SW 0 77.2 459
12:58:48 8 992 175 6 N 0 77.5 457
13:01:48 7 992 209 1 SW 0 77.7 407
13:04:48 7 992 210 1 O 0 78.3 413
13:07:47 7 991 208 10 S 0 79.4 407
13:10:48 7 991 203 2 SW 0 79.7 407
13:13:46 7 991 202 2 S 0 79.5 404
13:16:48 7 991 200 5 W 0 79.8 407
13:19:45 7 991 197 7 W 0 79.7 408
13:22:46 7 991 196 3 W 0 80.5 404
13:25:47 7 991 195 5 SO 0 80.9 404
13:28:48 6 991 194 3 SW 0 81.1 406
13:31:46 6 991 191 2 NO 0 81.4 407
13:34:48 6 991 193 2 NW 0 81.3 406
13:37:47 6 991 194 5 S 0 81.3 407
13:40:48 6 991 195 2 N 0 81.3 407
13:43:47 6 991 195 4 W 0 81.9 405
13:46:48 6 991 198 3 W 0 81.8 407
13:49:47 6 991 199 1 SO 0 81.7 394
13:52:50 6 991 202 0 N 0 82.3 404
13:55:49 6 991 198 2 SW 0 82.5 404
13:58:48 6 991 191 2 SW 0 82.4 408
14:01:47 6 991 185 1 NW 0 82.4 407
14:04:48 6 991 185 0 SW 0 82.9 404
14:07:49 6 992 185 2 SW 0 82.3 393
14:10:47 6 991 167 4 NW 0 81.7 406
14:13:45 6 991 168 1 O 0 82 407
14:16:46 6 991 178 4 S 0 82.7 404
14:19:45 6 991 180 3 N 0 82.8 404
14:22:45 6 991 172 3 SW 0 82.3 404
14:25:45 6 991 174 2 W 0 82.6 404
14:28:47 6 991 173 1 SO 0 82.9 404
14:31:45 6 991 172 1 W 0 83.3 403
14:34:47 6 991 172 3 S 0 82.7 407
14:37:47 6 991 173 2 SW 0 82.9 404
14:40:46 6 991 171 0 SO 0 83.2 410
14:43:46 6 991 162 1 N 0 83.7 419
14:46:46 6 991 156 3 S 0 84 427
14:49:45 6 991 145 6 S 0 84.2 437
14:52:45 6 991 136 1 S 0 84.6 431
14:55:47 6 991 129 1 S 0 84.8 448
14:58:45 6 991 142 0 O 0 84.9 451
15:01:46 5 991 138 3 NW 0 85.4 454
15:04:45 5 991 148 2 O 0 84.8 465
15:07:46 5 991 155 4 NW 0 84.8 471
15:10:47 5 991 159 2 N 0 84.8 463
15:13:47 5 991 176 3 S 0 85.4 460
15:16:47 5 991 184 5 S 0 85.2 468
15:19:48 5 991 183 3 S 0 84.9 480
15:22:46 5 991 188 3 S 0 85.1 489
15:25:46 5 991 149 5 W 0 84.3 489
15:28:47 5 991 132 1 N 0 84.8 486
15:31:50 5 991 140 0 SW 0 84.9 490
15:34:48 5 991 144 2 NW 0 84.7 489
15:37:50 5 991 139 2 S 0 85.6 497
15:40:47 5 991 137 2 SW 0 85.7 506
15:43:47 5 991 124 7 NW 0 86.3 503
15:46:47 5 991 103 5 NW 0 86.5 506
15:49:46 5 991 104 0 S 0 86.8 504
15:52:45 5 991 89 2 O 0 87.2 512
15:55:46 5 991 77 2 SW 0 87.4 527
15:58:47 5 991 80 1 SW 0 87.4 536
16:01:46 5 991 84 2 O 0 87.7 535
16:04:48 5 991 72 0 SO 0 87.7 533
16:07:46 5 991 64 0 S 0 87.8 536
16:10:47 5 991 46 7 SW 0 88 536
16:13:47 5 991 32 7 W 0 88 533
16:16:48 5 991 26 2 SW 0 88.2 539
16:19:47 5 991 18 8 W 0 88.6 542
16:22:46 5 991 14 1 SW 0 89.5 545
16:25:47 5 991 12 9 O 0 89.9 539
16:28:46 5 991 9 4 S 0 90.5 538
16:31:48 5 991 6 6 W 0 90.7 541
16:34:47 5 991 4 13 NW 0 91 553
16:37:46 5 991 3 1 NW 0 91.2 559
16:40:44 5 991 0 3 S 0 91.2 560
16:43:46 4 991 0 1 SO 0 91.5 553
16:46:45 5 991 0 0 NW 0 91.6 553
16:49:47 4 991 0 1 SO 0 91.8 555
16:52:45 4 991 0 2 S 0 92 559
16:55:45 4 991 0 1 O 0 92.5 562
16:58:47 4 991 0 2 SW 0 92.7 564
17:01:46 4 991 0 1 SW 0 92.9 571
17:04:46 4 991 0 1 W 0 92.9 573
17:07:44 4 991 0 2 W 0 92.9 577
17:10:45 4 991 0 3 O 0 93 585
17:13:45 4 991 0 1 S 0 93.2 585
17:16:45 4 991 0 1 NW 0 93.1 577
17:19:46 4 991 0 4 NW 0 93 576
17:22:45 4 991 0 2 SO 0 92.9 576
17:25:45 4 991 0 2 SW 0 93 562
17:28:44 4 991 0 4 SW 0 93 550
17:31:45 4 991 0 0 NO 0 93 544
17:34:45 4 991 0 8 W 0 93.1 539
17:37:46 4 991 0 3 NW 0 93.1 539
17:40:49 4 991 0 3 NW 0 93 526
17:43:46 4 991 0 5 SW 0 92.9 529
17:46:46 4 991 0 3 SW 0 92.9 533
17:49:46 4 991 0 2 NW 0 92.9 545
17:52:46 4 991 0 2 SW 0 92.9 544
17:55:48 4 991 0 5 W 0 92.9 539
17:58:43 4 991 0 1 S 0 93 544
18:01:59 4 991 0 5 W 0 93 558
18:04:48 4 991 0 4 SW 0 92.9 556
18:07:45 4 991 0 5 W 0 92.9 554
18:10:45 4 991 0 1 W 0 93 553
18:13:45 4 991 0 0 SO 0 93.1 559
18:16:47 4 991 0 2 SW 0 93.2 568
18:19:46 4 991 0 4 SW 0 93.3 568
18:22:47 4 991 0 5 S 0 93.4 559
18:25:45 4 991 0 1 S 0 93.5 553
18:28:47 4 991 0 0 NO 0 93.5 543
18:31:46 4 991 0 5 SW 0 93.7 539
18:34:45 4 991 0 0 S 0 93.8 539
18:37:46 4 991 0 6 S 0 93.8 537
18:40:46 4 991 0 0 S 0 93.9 531
18:43:48 4 991 0 3 NW 0 94 524
18:46:45 4 991 0 1 S 0 94 518
18:49:49 4 991 0 2 W 0 94.2 509
18:52:46 4 991 0 4 W 0 94.4 512
18:55:44 4 991 0 9 W 0 94.4 515
18:58:45 4 991 0 3 W 0 94.4 503
19:01:45 4 991 0 8 W 0 94.5 503
19:04:47 4 991 0 6 SW 0 94.6 492
19:07:49 4 991 0 3 SO 0 94.6 491
19:10:46 4 991 0 6 SO 0 94.6 489
19:13:46 4 991 0 3 SO 0 94.7 486
19:16:49 4 991 0 3 NW 0 94.7 480
19:19:46 4 991 0 5 SW 0 94.8 483
19:22:46 4 991 0 1 SW 0 94.9 480
19:25:44 4 991 0 1 O 0 95 480
19:28:46 4 991 0 1 NW 0 95.1 468
19:31:46 4 991 0 1 SO 0 95.1 462
19:34:46 4 991 0 2 NW 0 95.2 454
19:37:45 4 991 0 0 S 0 95.2 457
19:40:49 4 991 0 0 SO 0 95.3 459
19:43:48 4 991 0 2 SO 0 95.4 460
19:46:45 4 991 0 0 W 0 95.4 451
19:49:45 4 991 0 0 NW 0 95.4 448
19:52:43 4 991 0 1 S 0 95.4 451
19:55:44 4 991 0 3 0 95.5 442
19:58:46 4 991 0 4 S 0 95.6 444
20:01:45 4 991 0 5 S 0 95.8 444
20:04:45 4 991 0 12 S 0 95.9 444
20:07:47 4 991 0 2 S 0 96 445
20:10:46 4 991 0 2 S 0 96 442
20:13:46 4 991 0 1 N 0 96.1 436
20:16:47 4 991 0 14 SW 0 96.1 430
20:19:46 4 991 0 2 N 0 96.2 430
20:22:49 4 991 0 0 SW 0 96.2 433
20:25:48 4 991 0 2 SO 0 96.2 428
20:28:47 4 991 0 1 W 0 96.3 428
20:31:48 4 991 0 1 SW 0 96.3 422
20:34:48 4 991 0 4 SW 0 96.3 419
20:37:46 4 991 0 0 S 0 96.3 416
20:40:46 4 991 0 0 NW 0 96.4 518
20:43:47 4 991 0 0 SW 0 96.4 516
20:46:45 4 991 0 2 W 0 96.4 504
20:49:48 4 991 0 0 SO 0 96.4 501
20:52:45 4 991 0 2 S 0 96.4 501
20:55:45 4 991 0 0 O 0 96.5 501
20:58:44 4 991 0 2 W 0 96.4 501
21:01:47 4 991 0 1 NO 0 96.4 500
21:04:45 4 991 0 3 SO 0 96.4 500
21:07:44 4 991 0 3 N 0 96.4 492
21:10:46 4 991 0 1 SW 0 96.4 492
21:13:45 4 991 0 2 N 0 96.4 492
21:16:45 4 991 0 6 W 0 96.5 492
21:19:47 4 991 0 5 S 0 96.5 483
21:22:46 4 991 0 6 NW 0 96.6 477
21:25:44 4 991 0 6 S 0 96.6 471
21:28:44 4 991 0 9 S 0 96.6 473
21:31:45 4 991 0 4 SO 0 96.6 468
21:34:47 4 991 0 4 SW 0 96.6 457
21:37:46 4 991 0 4 W 0 96.6 435
21:40:45 4 991 0 9 S 0 96.6 444
21:43:48 4 991 0 6 W 0 96.6 457
21:46:44 4 991 0 0 0 96.6 454
21:49:44 4 991 0 2 N 0 96.6 442
21:52:47 4 991 0 8 NW 0 96.6 442
21:55:46 4 991 0 2 SW 0 96.6 439
21:58:47 4 991 0 5 SW 0 96.6 439
22:01:49 4 991 0 13 NW 0 96.6 442
22:04:47 4 991 0 5 NO 0 96.6 448
22:07:46 4 991 0 1 SO 0 96.6 454
22:10:46 4 991 0 3 W 0 96.6 457
22:13:46 4 991 0 4 SO 0 96.6 453
22:16:45 4 991 0 3 W 0 96.6 456
22:19:48 4 991 0 7 S 0 96.6 459
22:22:45 4 991 0 4 SW 0 96.6 468
22:25:47 4 991 0 2 SW 0 96.6 466
22:28:45 4 991 0 9 SW 0 96.6 474
22:31:48 4 991 0 2 SO 0 96.6 477
22:34:47 4 990 0 5 SO 0 96.6 483
22:37:45 4 991 0 4 SW 0 96.6 480
22:40:48 4 991 0 5 SW 0 96.6 478
22:43:46 4 990 0 2 S 0 96.6 483
22:46:47 4 990 0 1 W 0 96.6 489
22:49:48 4 991 0 0 SO 0 96.6 493
22:52:47 4 990 0 3 SO 0 96.6 501
22:55:48 4 991 0 3 NW 0 96.6 504
22:58:48 4 990 0 3 SO 0 96.6 507
23:01:46 4 990 0 1 S 0 96.6 510
23:04:46 4 990 0 0 W 0 96.6 513
23:07:49 4 990 0 3 S 0 96.6 513
23:10:47 4 990 0 2 O 0 96.6 519
23:13:46 4 990 0 1 NW 0 96.6 521
23:16:45 4 990 0 0 W 0 96.6 524
23:19:46 4 990 0 2 SO 0 96.6 529
23:22:45 4 991 0 1 S 0 96.6 535
23:25:46 4 990 0 7 W 0 96.6 527
23:28:48 4 990 0 1 NW 0 96.6 526
23:31:46 4 991 0 5 W 0 96.6 527
23:34:46 4 990 0 2 SW 0 96.6 530
23:37:46 4 990 0 2 S 0 96.6 541
23:40:50 4 990 0 0 NW 0 96.6 542
23:43:47 3 989 0 0 S 0 96.6 539
23:46:46 3 990 0 4 O 0 96.6 544
23:49:48 3 990 0 2 NW 0 96.6 548
23:52:45 3 990 0 1 S 0 96.6 548
23:55:47 3 990 0 0 O 0 96.6 541
23:58:49 3 990 8 6 SW 0 96.6 539

Letzte Änderung : 04-Jan-2022
Copyright Jens Köhler, Wolfsburg, Obere Dorfstraße 10d